TimeCST,TemperatureF,Dew PointF,Humidity,Sea Level PressureIn,VisibilityMPH,Wind Direction,Wind SpeedMPH,Gust SpeedMPH,PrecipitationIn,Events,Conditions,WindDirDegrees,DateUTC
12:15 AM,59.0,42.8,55,29.90,10.0,South,18.4,27.6,N/A,,Clear,190,2013-02-18 06:15:00
12:35 AM,57.2,42.8,59,29.90,10.0,South,15.0,26.5,N/A,,Clear,180,2013-02-18 06:35:00
12:55 AM,57.2,42.8,59,29.90,10.0,South,15.0,21.9,N/A,,Scattered Clouds,180,2013-02-18 06:55:00
1:15 AM,57.2,44.6,63,29.90,10.0,South,17.3,23.0,N/A,,Scattered Clouds,180,2013-02-18 07:15:00
1:35 AM,57.2,44.6,63,29.89,10.0,South,18.4,23.0,N/A,,Mostly Cloudy,180,2013-02-18 07:35:00
1:55 AM,57.2,44.6,63,29.88,10.0,South,15.0,24.2,N/A,,Overcast,180,2013-02-18 07:55:00
2:15 AM,57.2,44.6,63,29.87,10.0,South,16.1,23.0,N/A,,Overcast,180,2013-02-18 08:15:00
2:35 AM,57.2,44.6,63,29.86,10.0,South,17.3,25.3,N/A,,Overcast,170,2013-02-18 08:35:00
2:55 AM,57.2,46.4,67,29.85,10.0,South,16.1,27.6,N/A,,Overcast,180,2013-02-18 08:55:00
3:15 AM,59.0,46.4,63,29.84,10.0,South,15.0,26.5,N/A,,Overcast,170,2013-02-18 09:15:00
3:35 AM,59.0,46.4,63,29.84,10.0,South,13.8,24.2,N/A,,Overcast,180,2013-02-18 09:35:00
3:55 AM,59.0,46.4,63,29.83,10.0,South,13.8,23.0,N/A,,Overcast,180,2013-02-18 09:55:00
4:15 AM,59.0,48.2,67,29.82,10.0,South,13.8,23.0,N/A,,Overcast,180,2013-02-18 10:15:00
4:35 AM,59.0,48.2,67,29.81,10.0,South,16.1,25.3,N/A,,Overcast,190,2013-02-18 10:35:00
4:55 AM,59.0,48.2,67,29.81,10.0,South,15.0,24.2,N/A,,Overcast,190,2013-02-18 10:55:00
5:47 AM,59.0,50.0,72,29.81,13.0,South,17.3,26.5,N/A,,Overcast,180,2013-02-18 11:47:00
6:48 AM,59.0,51.8,77,29.80,13.0,South,8.1,23.0,N/A,,Overcast,180,2013-02-18 12:48:00
7:47 AM,60.8,51.8,72,29.80,13.0,South,15.0,25.3,N/A,,Overcast,180,2013-02-18 13:47:00
8:57 AM,62.6,53.6,72,29.81,13.0,South,19.6,31.1,N/A,,Overcast,180,2013-02-18 14:57:00
9:47 AM,64.4,53.6,68,29.81,13.0,South,19.6,33.4,N/A,,Overcast,190,2013-02-18 15:47:00
10:53 AM,68.0,53.6,60,29.80,13.0,SSW,15.0,31.1,N/A,,Overcast,200,2013-02-18 16:53:00
11:47 AM,71.6,50.0,46,29.79,13.0,SW,18.4,36.8,N/A,,Mostly Cloudy,220,2013-02-18 17:47:00
12:47 PM,75.2,42.8,31,29.77,13.0,WSW,19.6,32.2,N/A,,Scattered Clouds,250,2013-02-18 18:47:00
3:53 PM,66.2,32.0,28,29.85,20.0,NW,20.7,34.5,N/A,,Partly Cloudy,310,2013-02-18 21:53:00
6:50 PM,59.0,32.0,36,29.98,20.0,NW,11.5,18.4,N/A,,Partly Cloudy,310,2013-02-19 00:50:00
7:47 PM,57.2,32.0,38,30.02,15.0,NW,8.1,12.7,N/A,,Clear,310,2013-02-19 01:47:00
8:47 PM,53.6,33.8,47,30.05,15.0,NW,5.8,-,N/A,,Clear,320,2013-02-19 02:47:00
9:15 PM,53.6,33.8,47,30.06,10.0,NW,5.8,-,N/A,,Clear,320,2013-02-19 03:15:00
9:35 PM,51.8,33.8,50,30.08,10.0,NNW,6.9,-,N/A,,Clear,330,2013-02-19 03:35:00
9:47 PM,53.6,33.8,47,30.09,15.0,NW,20.7,-,N/A,,Clear,320,2013-02-19 03:47:00
9:55 PM,51.8,33.8,50,30.10,10.0,NNW,6.9,-,N/A,,Clear,340,2013-02-19 03:55:00
10:15 PM,51.8,32.0,47,30.12,10.0,NNW,8.1,-,N/A,,Clear,340,2013-02-19 04:15:00
10:35 PM,51.8,32.0,47,30.13,10.0,NNW,9.2,-,N/A,,Clear,340,2013-02-19 04:35:00
10:55 PM,51.8,30.2,44,30.13,10.0,North,8.1,-,N/A,,Clear,350,2013-02-19 04:55:00
11:15 PM,50.0,30.2,47,30.14,10.0,North,9.2,-,N/A,,Clear,350,2013-02-19 05:15:00
11:35 PM,50.0,30.2,47,30.13,10.0,North,9.2,-,N/A,,Clear,360,2013-02-19 05:35:00
11:55 PM,50.0,28.4,43,30.13,10.0,North,9.2,-,N/A,,Clear,360,2013-02-19 05:55:00